Ana Sayfa
METAR-TAF:

METAR-TAF

Havaalanları :

Milton, Massachusetts, Amerika Birleşik Devletleri

Enlem: 42-12-44N, Boylam: 071-06-53W, yükseklik: 192 m

Güncel hava durumu gözlemi

Rapor saat 10:51 UTC de 1 saat ve 5 dakika önce yapıldı.
Rüzgar kuzeybatıdan 10 kt ve 18 kt'a kadar ani rüzgarlar
Sıcaklık -2°C
Nem 63%
Basınç 1012 hPa

METAR: KMQE 291051Z AUTO 32010G18KT M02/M08 A2989 RMK AO1 SLP140 T10221083

Saat: 06:56 (11:56 UTC)


TAF: eksik

4.000'den fazla havaalanı için hava durumu gözlemleri ve tahminleri (METAR ve TAF raporları).

Kullanılabilir istasyonlar harita üzerinde sarı ve kırmızı noktalarla gösterilir.

İstasyonun adını görmek için fareyi noktanın üzerinde gezdirin.

Sonrasında hava gözlem ve tahminlerini görmek için tıklayın.

Haritayı değiştirmek için: yaklaştırmak için siyah artı işaretli yeşil düğmeye ve uzaklaştırmak için de eksi işaretli düğmeye hızla tıklayın; bitişik haritalar için yeşil okları kullanın.


METAR-TAF: